Temp
-14 -14 -14 -14 -14 -14 -14 -14 -14 -14 -14 -14 -14 -14 -14 -14 -14 -14 -14 -14 -14 -14 -14 -14 -14 -14 -15 -15 -15 -15 -15 -16 -16 -16 -16 -16 -16 -16 -16 -16 -16 -16
-14 -14 -14 -14 -14 -14 -14 -14 -14 -14 -14 -14 -14 -14 -14 -14 -14 -14 -14 -14 -14 -14 -14 -14 -15 -15 -15 -15 -15 -15 -16 -16 -16 -16 -16 -16 -16 -16 -16 -16 -16 -16
-14 -14 -14 -14 -14 -14 -14 -14 -14 -14 -14 -14 -14 -14 -14 -14 -14 -14 -14 -14 -14 -15 -15 -15 -15 -15 -15 -15 -15 -16 -16 -16 -16 -16 -16 -16 -16 -16 -16 -16 -16 -16
-14 -14 -14 -14 -14 -14 -14 -14 -14 -14 -14 -14 -14 -14 -14 -14 -14 -14 -14 -15 -15 -15 -15 -15 -15 -15 -15 -15 -15 -15 -15 -16 -16 -16 -16 -16 -16 -16 -16 -16 -16 -16
-14 -14 -14 -14 -14 -14 -14 -14 -14 -14 -14 -14 -14 -14 -14 -14 -14 -15 -15 -15 -15 -15 -15 -15 -15 -15 -15 -15 -15 -15 -15 -16 -16 -16 -16 -16 -16 -16 -16 -16 -16 -16
-14 -14 -14 -14 -14 -15 -15 -15 -15 -15 -15 -15 -15 -15 -15 -15 -15 -15 -15 -15 -15 -15 -15 -15 -15 -15 -15 -15 -15 -16 -16 -16 -16 -16 -16 -16 -16 -16 -16 -16 -16 -16
-14 -14 -14 -15 -15 -15 -15 -15 -15 -15 -15 -15 -15 -15 -15 -15 -15 -15 -15 -15 -15 -15 -15 -15 -15 -15 -15 -15 -16 -16 -16 -16 -16 -16 -16 -16 -16 -16 -16 -16 -16 -16
-15 -15 -15 -15 -15 -15 -15 -15 -15 -15 -15 -15 -15 -15 -15 -15 -15 -15 -15 -15 -15 -15 -15 -15 -15 -15 -16 -16 -16 -16 -16 -16 -16 -16 -16 -16 -16 -17 -17 -16 -16 -16
-15 -15 -15 -15 -15 -15 -15 -15 -15 -15 -15 -15 -15 -15 -15 -15 -15 -15 -15 -15 -15 -15 -15 -15 -15 -16 -16 -16 -16 -16 -16 -16 -16 -16 -17 -17 -17 -17 -17 -17 -17 -17
-15 -15 -15 -15 -15 -15 -15 -15 -15 -15 -15 -15 -15 -15 -15 -15 -15 -15 -15 -15 -15 -15 -16 -16 -16 -16 -16 -16 -16 -16 -16 -16 -17 -17 -17 -17 -17 -17 -17 -17 -17 -17
-15 -15 -15 -15 -15 -15 -15 -15 -15 -15 -15 -15 -15 -15 -15 -15 -15 -15 -15 -16 -16 -16 -16 -16 -16 -16 -16 -16 -16 -17 -17 -17 -17 -17 -17 -17 -17 -17 -17 -17 -17 -17
-15 -15 -15 -15 -15 -15 -15 -15 -15 -15 -15 -15 -15 -15 -15 -15 -16 -16 -16 -16 -16 -16 -16 -16 -16 -17 -17 -17 -17 -17 -17 -17 -17 -17 -17 -17 -17 -17 -17 -17 -17 -17
-15 -15 -15 -15 -15 -15 -15 -15 -15 -16 -16 -16 -16 -16 -16 -16 -16 -16 -16 -16 -16 -16 -16 -17 -17 -17 -17 -17 -17 -17 -17 -17 -17 -18 -18 -18 -17 -17 -17 -17 -17 -17
-15 -15 -15 -15 -15 -15 -15 -15 -16 -16 -16 -16 -16 -16 -16 -16 -16 -16 -16 -16 -16 -17 -17 -17 -17 -17 -17 -17 -17 -17 -17 -18 -18 -18 -18 -18 -18 -17 -17 -17 -17 -18
-15 -15 -15 -15 -15 -15 -15 -16 -16 -16 -16 -16 -16 -16 -16 -16 -16 -16 -17 -17 -17 -17 -17 -17 -17 -17 -17 -18 -18 -18 -18 -18 -18 -18 -18 -18 -18 -17 -17 -17 -18 -18
-15 -15 -15 -15 -15 -15 -15 -16 -16 -16 -16 -16 -16 -16 -16 -16 -17 -17 -17 -17 -17 -17 -17 -17 -17 -17 -18 -18 -18 -18 -18 -18 -18 -18 -18 -18 -18 -18 -18 -18 -18 -18
-15 -15 -15 -15 -15 -15 -16 -16 -16 -16 -16 -16 -16 -16 -17 -17 -17 -17 -17 -17 -17 -17 -17 -17 -18 -18 -18 -18 -18 -18 -18 -18 -18 -18 -18 -18 -18 -18 -18 -18 -19 -19
-15 -15 -15 -15 -15 -16 -16 -16 -16 -16 -16 -16 -17 -17 -17 -17 -17 -17 -17 -17 -17 -17 -18 -18 -18 -18 -18 -18 -18 -18 -18 -18 -18 -18 -18 -18 -18 -18 -19 -19 -19 -20
-15 -15 -15 -15 -16 -16 -16 -16 -16 -16 -16 -17 -17 -17 -17 -17 -17 -17 -17 -18 -18 -18 -18 -18 -18 -18 -18 -18 -18 -18 -18 -18 -18 -18 -18 -18 -19 -19 -19 -20 -20 -20
-15 -15 -16 -16 -16 -16 -16 -16 -16 -16 -17 -17 -17 -17 -17 -17 -17 -17 -18 -18 -18 -18 -18 -18 -18 -18 -18 -18 -18 -18 -18 -18 -18 -19 -19 -19 -19 -19 -20 -20 -20 -21
-15 -15 -16 -16 -16 -16 -16 -16 -16 -17 -17 -17 -17 -17 -17 -17 -17 -18 -18 -18 -18 -18 -18 -18 -18 -18 -18 -18 -18 -18 -19 -19 -19 -19 -19 -19 -19 -20 -20 -20 -21 -21
-15 -15 -16 -16 -16 -16 -16 -16 -17 -17 -17 -17 -17 -17 -17 -17 -18 -18 -18 -18 -18 -18 -18 -18 -18 -18 -18 -18 -18 -19 -19 -19 -19 -19 -19 -19 -20 -20 -21 -21 -21 -21
-15 -15 -16 -16 -16 -16 -16 -17 -17 -17 -17 -17 -17 -17 -17 -18 -18 -18 -18 -18 -18 -18 -18 -18 -18 -18 -18 -18 -19 -19 -19 -19 -19 -19 -20 -20 -20 -21 -21 -21 -21 -22
-15 -15 -16 -16 -16 -16 -16 -17 -17 -17 -17 -17 -17 -17 -18 -18 -18 -18 -18 -18 -18 -18 -18 -18 -18 -18 -18 -19 -19 -19 -19 -19 -19 -20 -20 -20 -21 -21 -21 -22 -22 -22
-15 -16 -16 -16 -16 -16 -17 -17 -17 -17 -17 -17 -17 -18 -18 -18 -18 -18 -18 -18 -18 -18 -18 -18 -18 -19 -19 -19 -19 -19 -19 -20 -20 -20 -20 -21 -21 -21 -22 -22 -22 -22
-16 -16 -16 -16 -16 -17 -17 -17 -17 -17 -17 -17 -18 -18 -18 -18 -18 -18 -18 -18 -18 -18 -18 -18 -19 -19 -19 -19 -19 -20 -20 -20 -20 -21 -21 -21 -21 -22 -22 -22 -22 -22
Height
5813 5814 5814 5815 5815 5815 5815 5815 5815 5814 5814 5813 5813 5812 5812 5811 5810 5808 5807 5805 5804 5802 5800 5798 5796 5794 5792 5790 5788 5786 5783 5781 5779 5777 5775 5772 5769 5766 5764 5762 5760 5758
5812 5812 5813 5813 5813 5813 5813 5813 5813 5812 5812 5812 5811 5811 5810 5808 5807 5805 5804 5802 5800 5798 5796 5794 5792 5790 5788 5786 5784 5782 5780 5777 5775 5773 5770 5768 5765 5762 5760 5758 5756 5754
5811 5811 5811 5812 5811 5811 5811 5811 5811 5811 5811 5810 5809 5808 5807 5805 5803 5802 5800 5798 5797 5795 5793 5791 5789 5787 5785 5783 5780 5778 5776 5774 5771 5768 5766 5763 5760 5758 5756 5754 5752 5750
5809 5809 5810 5810 5810 5809 5809 5809 5809 5809 5808 5807 5806 5805 5803 5802 5800 5799 5797 5795 5794 5792 5790 5788 5785 5783 5781 5779 5777 5774 5772 5769 5767 5764 5762 5759 5757 5755 5753 5750 5748 5746
5806 5806 5807 5807 5807 5807 5807 5807 5806 5806 5805 5804 5803 5801 5800 5799 5797 5795 5794 5792 5790 5788 5786 5784 5782 5779 5777 5775 5772 5770 5768 5765 5762 5760 5758 5755 5753 5751 5749 5747 5744 5742
5803 5804 5804 5804 5804 5804 5804 5804 5803 5802 5801 5800 5799 5798 5797 5795 5794 5792 5790 5789 5787 5785 5783 5780 5778 5775 5773 5771 5768 5766 5764 5761 5759 5757 5755 5752 5749 5747 5745 5742 5740 5737
5801 5801 5801 5801 5801 5801 5801 5801 5800 5799 5798 5797 5796 5795 5794 5792 5791 5789 5787 5785 5783 5781 5779 5776 5774 5771 5769 5767 5764 5762 5760 5758 5755 5753 5751 5748 5745 5743 5740 5738 5736 5733
5799 5799 5799 5799 5799 5799 5798 5798 5797 5796 5795 5794 5793 5792 5791 5789 5787 5785 5784 5782 5780 5777 5775 5773 5770 5767 5765 5763 5761 5758 5756 5754 5752 5749 5747 5744 5741 5739 5736 5733 5731 5727
5796 5796 5796 5796 5796 5796 5795 5795 5794 5793 5792 5791 5790 5789 5787 5785 5784 5782 5780 5778 5776 5774 5771 5768 5766 5763 5761 5759 5757 5755 5753 5751 5748 5745 5743 5741 5738 5735 5731 5728 5726 5722
5794 5794 5794 5794 5793 5793 5792 5792 5791 5790 5789 5787 5786 5785 5783 5782 5780 5778 5776 5774 5772 5770 5767 5765 5762 5760 5758 5756 5753 5751 5749 5747 5744 5741 5739 5736 5734 5731 5726 5723 5720 5716
5791 5791 5791 5791 5791 5790 5789 5788 5788 5787 5785 5784 5783 5781 5780 5778 5776 5775 5772 5770 5768 5766 5763 5761 5758 5756 5754 5752 5750 5747 5745 5743 5741 5737 5734 5732 5730 5727 5722 5718 5715 5711
5788 5788 5788 5788 5788 5787 5786 5785 5784 5783 5782 5780 5779 5778 5776 5774 5773 5771 5768 5766 5764 5762 5759 5757 5754 5752 5750 5748 5746 5744 5741 5739 5737 5734 5730 5728 5725 5722 5718 5713 5710 5706
5785 5785 5785 5784 5784 5783 5782 5781 5780 5779 5778 5777 5775 5774 5772 5770 5769 5767 5765 5762 5760 5758 5755 5753 5751 5748 5746 5744 5742 5739 5737 5735 5732 5730 5726 5723 5720 5717 5713 5709 5705 5701
5782 5782 5781 5781 5780 5779 5779 5778 5777 5775 5774 5773 5771 5770 5768 5767 5765 5763 5761 5758 5756 5754 5752 5749 5747 5745 5742 5740 5738 5735 5733 5731 5728 5726 5722 5718 5715 5712 5709 5705 5701 5696
5779 5778 5777 5777 5776 5775 5775 5774 5773 5771 5770 5769 5767 5766 5765 5763 5761 5759 5757 5755 5752 5750 5748 5745 5743 5741 5739 5736 5734 5732 5729 5727 5724 5721 5718 5714 5710 5707 5704 5700 5695 5691
5775 5774 5773 5773 5772 5772 5771 5770 5769 5767 5766 5765 5763 5762 5761 5759 5757 5755 5753 5751 5749 5746 5744 5742 5739 5737 5735 5733 5730 5728 5725 5722 5719 5717 5713 5710 5706 5702 5699 5694 5690 5686
5771 5770 5770 5769 5769 5768 5767 5766 5765 5763 5762 5761 5760 5758 5757 5755 5753 5751 5749 5747 5745 5743 5740 5738 5736 5734 5731 5729 5727 5724 5721 5718 5715 5712 5709 5706 5702 5698 5694 5690 5685 5681
5767 5766 5766 5765 5765 5764 5763 5762 5761 5759 5758 5757 5756 5754 5753 5751 5749 5748 5746 5743 5741 5739 5737 5735 5732 5730 5728 5725 5723 5720 5717 5714 5711 5708 5704 5701 5697 5693 5689 5685 5681 5677
5763 5763 5762 5761 5760 5760 5759 5758 5757 5755 5754 5753 5752 5750 5749 5747 5746 5744 5742 5740 5738 5736 5733 5731 5729 5727 5724 5722 5719 5716 5713 5711 5708 5704 5700 5696 5693 5689 5686 5682 5678 5674
5759 5758 5758 5757 5756 5755 5754 5754 5753 5751 5750 5749 5748 5746 5745 5744 5742 5740 5738 5736 5734 5732 5730 5728 5726 5723 5721 5718 5715 5713 5710 5707 5704 5700 5696 5692 5689 5686 5682 5678 5675 5671
5754 5754 5753 5752 5752 5751 5750 5749 5748 5747 5746 5745 5744 5743 5741 5740 5738 5736 5734 5733 5731 5729 5726 5724 5722 5719 5717 5714 5711 5709 5706 5703 5700 5697 5693 5689 5685 5682 5679 5675 5672 5668
5750 5749 5749 5748 5747 5746 5745 5745 5744 5743 5742 5741 5740 5739 5738 5736 5734 5733 5731 5729 5727 5725 5723 5720 5718 5716 5713 5710 5708 5705 5702 5699 5696 5693 5690 5686 5682 5679 5676 5673 5669 5665
5745 5745 5744 5743 5742 5742 5741 5740 5740 5739 5738 5737 5736 5735 5734 5732 5731 5729 5727 5725 5723 5721 5719 5717 5714 5712 5709 5707 5704 5701 5699 5696 5692 5689 5686 5683 5680 5677 5674 5670 5666 5663
5741 5740 5739 5739 5738 5737 5737 5736 5736 5735 5734 5733 5732 5731 5730 5729 5727 5725 5723 5721 5719 5717 5715 5713 5710 5708 5705 5703 5700 5698 5695 5692 5689 5686 5683 5680 5677 5675 5671 5668 5664 5661
5736 5736 5735 5734 5733 5733 5733 5732 5732 5731 5730 5729 5728 5727 5725 5724 5723 5721 5719 5717 5716 5714 5711 5709 5706 5704 5701 5699 5697 5694 5692 5688 5686 5683 5680 5677 5675 5672 5669 5665 5662 5659
5731 5731 5730 5730 5729 5729 5728 5728 5727 5727 5726 5725 5724 5723 5721 5720 5718 5717 5715 5713 5711 5709 5707 5705 5702 5700 5698 5696 5693 5691 5688 5685 5682 5680 5677 5675 5673 5669 5666 5663 5660 5657
Wind_Speed
10 12 13 14 15 16 17 17 17 17 18 18 19 19 20 21 23 25 26 28 29 31 32 34 35 36 37 37 37 37 36 36 36 36 36 37 37 38 39 39 40 40
11 13 14 15 16 16 17 17 17 17 18 18 19 20 21 23 25 26 28 29 31 33 34 35 36 37 37 37 37 36 36 36 36 37 37 37 38 38 38 39 39 40
11 13 14 14 15 15 15 16 16 17 18 19 19 21 23 24 26 28 29 31 32 34 35 36 37 37 37 37 37 37 36 36 37 37 37 37 37 37 38 38 39 40
12 12 13 13 13 13 14 15 16 17 18 19 21 23 25 27 28 30 31 32 33 35 36 37 38 38 38 37 37 37 36 36 36 36 37 36 36 37 37 38 40 41
13 13 13 14 14 14 16 17 18 19 20 21 23 25 27 29 30 31 32 33 35 36 38 38 38 38 38 37 37 36 36 36 36 36 36 36 36 37 38 39 40 42
14 15 15 16 16 17 18 19 20 21 23 24 26 27 29 31 32 33 34 35 36 38 38 39 39 38 38 37 36 35 36 36 35 35 35 36 37 38 39 40 41 43
16 17 18 18 18 19 20 21 22 24 25 27 28 30 31 33 34 34 35 36 37 38 39 39 39 38 37 36 35 35 35 35 34 35 36 37 38 38 39 41 43 45
17 18 18 19 19 21 22 23 25 26 27 29 30 32 33 35 35 35 36 37 38 39 39 39 38 37 36 35 35 35 34 34 35 36 37 37 38 39 41 43 45 47
18 18 19 19 21 22 24 25 27 28 29 31 32 34 35 36 36 36 37 38 39 39 39 39 38 36 35 35 34 34 34 35 36 37 38 38 39 41 43 45 47 49
18 19 20 21 22 24 26 27 28 30 31 33 34 35 36 37 37 37 38 38 39 39 39 38 37 35 35 34 34 35 35 36 37 38 38 39 40 42 45 47 49 51
20 20 21 22 24 26 28 29 30 31 33 34 35 36 37 38 38 38 38 39 39 39 38 37 36 35 35 35 35 36 37 38 38 39 40 40 42 44 47 49 51 54
22 23 24 25 26 28 29 31 32 33 34 35 36 37 38 38 38 39 39 39 39 38 37 36 36 35 35 36 36 37 38 39 39 40 41 42 44 46 48 51 54 57
25 26 27 28 29 30 31 32 33 34 35 36 37 38 38 38 39 39 40 39 38 38 37 36 36 36 36 37 37 38 39 39 40 40 42 44 46 48 51 54 56 58
26 28 30 31 32 32 33 34 34 35 35 36 37 38 38 39 40 40 39 38 38 37 37 36 36 37 37 37 38 38 39 40 40 41 43 46 48 50 53 55 56 58
28 30 33 34 34 34 34 35 35 35 36 37 38 38 38 39 40 40 39 38 37 37 37 37 37 37 37 38 38 39 40 41 42 43 45 47 49 51 53 55 56 57
30 32 35 36 35 35 35 35 35 35 37 38 38 38 38 39 40 40 38 38 38 38 38 38 38 38 38 38 39 40 40 41 43 44 46 48 50 51 53 54 55 55
33 34 35 35 35 35 35 35 35 36 37 38 38 38 38 39 40 40 38 38 38 38 38 39 38 38 39 39 40 40 41 42 43 45 47 48 50 51 52 53 54 53
34 35 35 34 34 34 35 35 36 37 37 37 37 37 38 40 40 39 39 39 39 39 39 39 39 39 39 40 40 41 41 43 44 46 47 48 49 50 51 51 50 49
35 35 35 35 35 35 36 37 37 37 37 37 37 37 38 39 40 39 39 39 39 40 40 40 40 40 40 40 41 41 42 43 44 46 47 47 48 49 49 48 47 44
36 36 36 36 36 37 37 38 37 36 36 36 36 37 38 39 39 39 40 40 40 40 40 40 40 40 40 41 41 42 43 44 44 45 45 46 47 47 46 45 43 41
37 37 37 37 37 38 37 37 36 36 36 36 36 37 38 39 39 39 40 40 40 40 40 41 41 41 41 42 43 43 43 43 43 44 44 45 45 44 43 41 39 38
37 36 36 37 37 37 37 36 36 35 35 36 36 37 38 38 38 39 40 41 41 41 42 42 42 41 42 43 44 43 42 42 42 42 43 43 42 41 39 37 36 35
36 36 36 37 37 37 36 36 36 35 35 36 37 37 37 38 38 38 40 41 42 42 42 42 42 42 43 45 43 41 40 40 41 41 42 41 39 37 35 34 33 32
35 36 36 37 37 36 36 36 35 35 35 36 37 37 37 38 38 39 40 41 42 43 43 43 43 43 45 44 40 38 38 39 39 40 39 38 36 34 32 31 30 30
36 36 37 37 37 36 36 35 35 35 36 36 36 37 38 38 39 40 41 42 43 43 43 43 44 44 43 40 37 36 37 37 38 37 36 35 33 31 29 29 28 29
36 36 37 37 37 36 36 35 35 35 36 36 36 37 38 39 40 41 42 42 43 43 44 44 44 42 38 35 34 35 35 35 35 35 34 32 30 28 27 27 27 29
Wind_Direction
263 267 269 271 273 273 275 279 284 288 291 293 296 297 298 299 299 300 302 303 304 305 306 306 306 306 305 304 304 304 304 304 304 304 305 306 306 307 308 309 309 310
265 267 270 271 272 273 276 280 283 286 289 291 292 293 294 297 300 302 304 305 306 307 307 306 306 305 304 304 304 304 304 304 304 305 306 307 308 309 310 310 311 311
259 263 267 268 269 271 274 277 279 282 285 287 290 295 299 303 305 306 306 306 306 306 306 306 305 305 304 304 304 303 303 304 305 306 308 309 309 310 311 311 312 313
262 266 269 271 273 276 279 281 284 286 290 295 300 304 306 306 307 307 306 306 306 306 306 306 305 304 304 303 304 304 304 305 307 308 309 309 310 311 311 312 313 313
273 276 277 281 285 288 290 291 293 296 300 304 306 307 307 307 307 306 305 305 305 306 305 305 304 303 303 304 304 305 306 307 307 308 309 310 310 311 311 312 312 313
278 279 281 286 289 292 294 296 299 302 305 306 307 307 307 307 306 305 305 305 305 305 304 304 304 303 304 304 305 306 306 307 308 309 309 310 309 310 310 311 312 313
276 279 282 286 289 292 295 299 301 303 305 305 305 306 306 305 305 304 304 304 304 304 305 304 304 304 304 305 305 306 307 307 308 308 309 309 309 309 310 311 312 313
275 278 281 284 288 292 296 298 300 301 302 303 303 304 304 304 304 303 303 303 304 305 305 305 305 305 305 305 305 306 307 307 308 309 309 308 308 308 309 310 311 313
273 278 280 284 287 291 295 297 298 299 300 301 302 303 303 303 303 303 303 304 305 306 306 306 306 306 306 306 306 306 307 308 309 309 308 307 306 307 308 310 312 313
269 274 278 283 287 291 294 295 297 298 298 299 300 301 302 302 302 303 304 305 306 306 306 307 307 307 306 306 306 307 308 309 309 308 306 305 305 306 309 311 313 315
268 271 275 280 285 289 291 293 296 297 296 297 298 300 301 302 302 303 305 306 306 307 307 308 308 307 307 307 307 308 308 309 309 307 305 305 305 308 311 314 315 316
270 272 275 279 283 286 288 291 294 295 295 295 297 299 301 301 302 304 305 306 307 307 308 308 308 308 307 307 308 308 309 309 309 307 305 305 307 311 313 315 316 315
271 275 278 280 283 285 287 290 292 293 293 294 297 299 300 301 302 304 306 307 307 307 308 308 308 308 308 308 308 309 309 309 309 307 307 309 311 313 315 316 315 314
270 275 278 280 282 285 287 289 290 290 292 294 296 298 300 301 302 304 306 306 306 308 308 308 308 308 309 309 309 310 310 310 310 309 311 313 314 315 316 315 314 313
271 274 277 279 282 284 285 287 287 289 291 294 296 298 299 300 302 305 306 306 307 308 309 309 310 310 310 310 311 311 312 312 312 313 314 315 316 316 316 314 314 314
272 274 276 278 281 282 283 284 286 288 290 293 295 297 299 300 302 305 306 306 307 309 310 311 311 311 311 312 312 313 314 315 316 316 316 317 317 316 315 315 315 315
273 274 275 277 279 280 281 282 285 287 290 292 294 296 298 300 303 305 305 306 308 309 311 312 313 313 313 314 314 315 316 317 317 317 317 317 316 316 316 316 317 318
273 274 275 276 277 278 279 281 284 287 290 292 294 296 298 300 303 304 305 307 309 311 313 314 314 314 314 315 316 316 317 317 318 318 317 316 316 316 317 317 319 320
272 273 275 276 276 277 279 281 284 287 290 292 293 296 298 300 302 303 305 307 311 313 314 315 315 315 315 315 315 316 317 318 318 317 316 316 317 317 318 319 321 323
271 273 274 275 276 277 279 281 285 288 290 292 293 296 298 300 301 302 305 309 312 314 316 315 315 315 315 315 315 316 317 317 317 316 316 317 318 318 320 322 324 325
271 272 274 275 275 277 279 282 285 288 290 291 293 295 297 299 300 302 305 309 312 315 316 316 316 315 315 314 314 315 316 315 315 315 316 317 318 320 323 324 326 329
271 272 273 274 275 277 280 283 286 287 289 290 292 294 296 298 299 301 305 308 311 313 314 315 315 315 314 313 312 313 313 313 313 315 317 318 321 323 324 326 329 333
270 272 273 274 275 277 280 282 285 286 287 289 292 294 295 297 298 300 304 307 310 312 313 314 314 314 314 312 311 311 311 312 313 316 318 320 323 324 325 329 333 335
270 271 272 273 275 277 279 281 283 284 286 289 291 293 294 295 297 300 303 306 308 311 313 313 314 314 312 310 309 309 310 312 315 317 320 322 323 324 328 332 335 337
271 271 272 273 274 276 278 280 282 284 286 288 290 291 293 294 296 299 302 304 307 310 312 312 313 312 309 307 308 309 311 314 317 319 322 322 322 326 331 334 336 340
271 271 272 273 274 276 278 280 282 284 286 287 289 290 292 294 296 299 301 303 306 309 310 311 310 308 306 306 307 310 313 316 319 321 322 321 324 329 333 336 339 341